Change the Weather History Date:

Sunday, November 3, 2013

  Actual Average Record
Temperature  
Mean Temperature 45 °F 51 °F  
Max Temperature 56 °F 62 °F 84 °F (1987)
Min Temperature 33 °F 40 °F 15 °F (1951)
Degree Days  
Heating Degree Days 20 14  
Month to date heating degree days 45 42  
Since 1 July heating degree days 384 383  
Cooling Degree Days 0 0  
Month to date cooling degree days 0 0  
Year to date cooling degree days 1127 1154  
Moisture  
Dew Point 35 °F    
Average Humidity 70    
Maximum Humidity 96    
Minimum Humidity 43    
Precipitation  
Precipitation 0.00 in 0.12 in 1.42 in (1955)
Month to date precipitation 0.02 0.38  
Year to date precipitation 42.57 38.26  
Sea Level Pressure  
Sea Level Pressure 30.27 in    
Wind  
Wind Speed 3 mph (ENE)    
Max Wind Speed 10 mph    
Max Gust Speed 15 mph    
Visibility 10 miles    
Events      
T = Trace of Precipitation, MM = Missing Value Source: NWS Daily Summary

Daily Weather History Graph

Daily Weather History Graph

Search for Another Location

Airport or City:

Trip Planner

Search our weather history database for the weather conditions in past years. The results will help you decide how hot, cold, wet, or windy it might be!

Date:

Astronomy

Nov. 03, 2013 Rise Set
Actual Time 7:07 AM EST 5:37 PM EST
Civil Twilight 6:40 AM EST 6:05 PM EST
Nautical Twilight 6:09 AM EST 6:36 PM EST
Astronomical Twilight 5:38 AM EST 7:07 PM EST
Moon 7:10 AM EST (11/3) 5:52 PM EST (11/3)
Length of Visible Light 11h 24m
Length of Day
10h 29m
New Moon, 0% of the Moon is Illuminated
Nov 3
New Moon
Nov 10
First Quarter
Nov 17
Full
Nov 25
Last Quarter
Dec 2
New

Hourly Weather History & Observations

Time (EST) Temp. Windchill Dew Point Humidity Pressure Visibility Wind Dir Wind Speed Gust Speed Precip Events Conditions
12:53 AM 41.0 °F - 36.0 °F 82% 30.12 in 10.0 mi Calm Calm - N/A   Partly Cloudy
1:53 AM 37.9 °F - 35.1 °F 89% 30.13 in 10.0 mi Calm Calm - N/A   Clear
1:53 AM 37.0 °F - 35.1 °F 93% 30.14 in 10.0 mi Calm Calm - N/A   Partly Cloudy
2:53 AM 37.0 °F - 34.0 °F 89% 30.16 in 10.0 mi Calm Calm - N/A   Clear
3:53 AM 35.1 °F 32.2 °F 34.0 °F 96% 30.18 in 9.0 mi NW 3.5 mph - N/A   Clear
4:53 AM 36.0 °F 33.3 °F 34.0 °F 93% 30.20 in 10.0 mi NNW 3.5 mph - N/A   Partly Cloudy
5:53 AM 36.0 °F - 33.1 °F 89% 30.22 in 10.0 mi Calm Calm - N/A   Clear
6:53 AM 33.1 °F - 32.0 °F 96% 30.25 in 10.0 mi Calm Calm - N/A   Clear
7:53 AM 35.1 °F - 33.1 °F 92% 30.29 in 7.0 mi Calm Calm - N/A   Clear
8:53 AM 41.0 °F - 37.0 °F 86% 30.30 in 9.0 mi Calm Calm - N/A   Clear
9:53 AM 46.9 °F - 39.0 °F 74% 30.32 in 10.0 mi Calm Calm - N/A   Clear
10:53 AM 51.1 °F - 37.9 °F 61% 30.33 in 10.0 mi Variable 4.6 mph - N/A   Clear
11:53 AM 53.1 °F - 37.0 °F 55% 30.33 in 10.0 mi ENE 5.8 mph - N/A   Clear
12:53 PM 53.1 °F - 34.0 °F 48% 30.31 in 10.0 mi Calm Calm - N/A   Clear
1:53 PM 54.0 °F - 34.0 °F 47% 30.29 in 10.0 mi Calm Calm - N/A   Partly Cloudy
2:53 PM 55.0 °F - 34.0 °F 45% 30.29 in 10.0 mi ESE 3.5 mph - N/A   Partly Cloudy
3:53 PM 55.0 °F - 34.0 °F 45% 30.29 in 10.0 mi Variable 6.9 mph - N/A   Clear
4:53 PM 52.0 °F - 35.1 °F 53% 30.29 in 10.0 mi East 4.6 mph - N/A   Clear
5:53 PM 48.9 °F - 35.1 °F 59% 30.30 in 10.0 mi ESE 3.5 mph - N/A   Clear
6:53 PM 42.1 °F 40.2 °F 35.1 °F 76% 30.32 in 10.0 mi East 3.5 mph - N/A   Clear
7:53 PM 44.1 °F 40.8 °F 35.1 °F 71% 30.31 in 10.0 mi East 5.8 mph - N/A   Clear
8:53 PM 43.0 °F 38.8 °F 35.1 °F 74% 30.30 in 10.0 mi East 6.9 mph - N/A   Clear
9:53 PM 41.0 °F - 35.1 °F 79% 30.36 in 10.0 mi Calm Calm - N/A   Clear
10:53 PM 39.0 °F 34.8 °F 34.0 °F 82% 30.34 in 10.0 mi East 5.8 mph - N/A   Clear